[[{"header":{"parameterUnit":"m.s-1","parameterCategory":1,"la1":30.2991,"la2":30.254,"lo1":-89.0895,"lo2":-89.0444,"dy":0.0017,"dx":0.0017,"nx":28,"ny":28,"refTime":"2025-08-16T03:00:00:Z","depth":0,"parameterNumber":2,"parameterNumberName":"U-component_of_WINDS"},"data":[0,0,0,0,0,0,0,0,0,0,0,0,0,0,0,0,0,0,0,0,0,0,0,0,0,0,0,0,0,0,0,0,0,0,0,0,0,0,0,0,0,0,0,0,0,0,0,0,0,0,0,0,0,0,0,0,0,0,1.432,1.432,0,1.4264,1.4264,1.4263,1.4199,1.4198,1.4197,1.4196,1.4135,1.4135,1.4134,0,0,0,0,0,0,0,0,0,0,0,0,0,1.437,1.4369,1.4321,1.432,1.4319,1.4265,1.4264,1.4263,1.4199,1.4198,1.4196,1.4195,1.4136,1.4135,1.4134,0,0,0,0,0,0,0,0,0,0,0,0,0,1.4334,1.4369,1.4321,1.4281,1.4276,1.4265,1.4264,1.4263,1.4199,1.4198,1.4196,1.4195,1.4136,1.4135,1.4134,1.4156,0,0,1.4131,1.413,0,0,0,0,0,0,0,0,1.4337,1.4333,1.4287,1.4283,1.4279,1.4237,1.4259,1.4227,1.4199,1.4228,1.4196,1.4194,1.417,1.4166,1.4159,1.4153,1.4151,1.413,1.413,1.4129,1.4129,0,0,0,0,0,0,0,1.4339,1.4335,1.4298,1.4287,1.4281,1.4265,1.4258,1.4253,1.4208,1.4226,1.4221,1.4215,1.4168,1.416,1.4157,1.415,1.4131,1.413,1.4129,1.4128,1.416,1.4162,0,0,0,0,0,0,1.4348,1.4337,1.43,1.4297,1.4305,1.4265,1.4258,1.4252,1.4208,1.42,1.4217,1.4213,1.4163,1.4158,1.4155,1.4178,1.4129,1.4128,1.4128,1.4159,1.416,1.4162,0,0,0,0,0,0,1.4349,1.4345,1.4302,1.4316,1.4309,1.4266,1.426,1.4252,1.4244,1.4201,1.4192,1.4217,1.4161,1.4156,1.4157,1.4175,1.4128,1.4127,1.4157,1.4159,1.4161,1.4225,0,0,0,0,0,0,1.4351,1.4346,1.4355,1.4316,1.4308,1.4306,1.4261,1.4251,1.4243,1.4237,1.4199,1.4192,1.416,1.4159,1.4156,1.4173,1.4126,1.4155,1.4158,1.4161,1.4221,1.4229,1.4236,0,0,0,0,0,1.4353,1.4374,1.4355,1.4351,1.4318,1.4307,1.4303,1.4266,1.4244,1.4252,1.4225,1.4193,1.4174,1.4159,1.4155,1.4172,1.4154,1.4157,1.416,1.4218,1.4228,1.4236,0,0,0,0,0,0,1.4414,1.4368,1.4347,1.4357,1.4337,1.4297,1.4305,1.4278,1.4263,1.4258,1.4212,1.4204,1.421,1.4191,1.4176,1.4192,1.4159,1.4162,1.4204,1.4213,1.422,1.4225,1.4125,0,0,0,0,0,1.4429,1.4425,1.4385,1.4397,1.4388,1.4349,1.4342,1.4316,1.4293,1.4284,1.4257,1.4235,1.4224,1.4217,1.4205,1.4218,1.4209,1.4228,1.4236,1.4242,1.4245,1.4251,1.4259,1.4173,1.4173,1.4173,0,0,1.4459,1.4434,1.4434,1.4409,1.439,1.4386,1.4342,1.4339,1.4336,1.4283,1.4283,1.4262,1.4234,1.4242,1.4243,1.4226,1.4267,1.4246,1.4252,1.4251,1.4255,1.4263,1.427,1.4175,1.4175,1.4174,0,0,1.4513,1.4493,1.4501,1.4484,1.4457,1.4431,1.4433,1.4397,1.4382,1.438,1.4341,1.4336,1.4318,1.43,1.4289,1.4337,1.4306,1.4334,1.4373,1.4379,1.4386,1.4391,1.4408,1.4415,1.4337,1.4337,1.4337,0,1.4553,1.4546,1.4509,1.4509,1.4499,1.4453,1.4461,1.4445,1.4415,1.4409,1.439,1.4367,1.4345,1.4348,1.436,1.4352,1.4353,1.4337,1.4388,1.4393,1.4398,1.4414,1.442,1.434,1.434,1.4339,1.4339,0,1.4598,1.4594,1.4604,1.4577,1.4568,1.4573,1.4535,1.453,1.4505,1.4481,1.4481,1.4453,1.4434,1.4433,1.4408,1.4432,1.4422,1.4397,1.4363,1.441,1.4424,1.443,1.4345,1.4344,1.4343,1.4342,0,0,1.4687,1.4641,1.4645,1.4633,1.46,1.4596,1.4598,1.4581,1.4578,1.4559,1.4559,1.4545,1.4521,1.4509,1.4481,1.4487,1.4527,1.446,1.4459,1.4473,1.4552,1.4572,1.4579,1.4507,1.4508,1.4509,1.4554,0,1.4734,1.4736,1.4702,1.4713,1.4709,1.4665,1.4667,1.4647,1.4625,1.4617,1.4592,1.4583,1.4552,1.4544,1.4548,1.4521,1.4542,1.4517,1.4506,1.4506,1.4514,1.4586,1.4607,1.4651,1.4559,1.456,1.4561,0,1.4789,1.4775,1.4785,1.4753,1.475,1.4752,1.4734,1.4728,1.4704,1.4687,1.4674,1.4643,1.4642,1.4611,1.4609,1.4593,1.4586,1.4573,1.4573,1.457,1.4536,1.4585,1.4664,1.4671,1.4569,1.4568,1.4568,0,1.4853,1.4836,1.4841,1.4831,1.4794,1.4796,1.4781,1.4755,1.4748,1.4732,1.4726,1.471,1.4701,1.4689,1.4654,1.4635,1.4656,1.4622,1.4642,1.4643,1.4648,1.4648,1.4727,1.4644,1.4644,1.4644,1.4644,0,1.4909,1.4917,1.4869,1.4872,1.488,1.4841,1.485,1.4829,1.4808,1.4805,1.4766,1.4765,1.472,1.4713,1.4686,1.4688,1.4684,1.467,1.4663,1.4674,1.4675,1.4668,1.4664,1.4646,1.4645,1.4645,1.4645,0,1.4982,1.495,1.4952,1.4916,1.4908,1.4915,1.4884,1.4885,1.4861,1.4858,1.4855,1.4817,1.4807,1.4772,1.4752,1.4734,1.4745,1.4731,1.4754,1.4749,1.4771,1.4769,1.4847,1.4856,1.4769,1.477,1.477,0,1.5019,1.5025,1.4991,1.4987,1.4973,1.4967,1.4959,1.4922,1.4915,1.4889,1.4893,1.488,1.4868,1.4853,1.4823,1.4809,1.4794,1.4822,1.4791,1.4802,1.4794,1.4794,1.4794,1.4829,1.483,1.4831,1.4832,0,1.5089,1.5074,1.5064,1.505,1.5042,1.5029,1.5013,1.5012,1.497,1.4964,1.4954,1.4945,1.4926,1.4914,1.4894,1.4877,1.4847,1.4842,1.4846,1.4856,1.4869,1.4863,1.4772,1.484,1.4839,1.4839,1.4838,1.4838,1.5145,1.5149,1.5125,1.5116,1.5101,1.5087,1.5086,1.5063,1.5054,1.5037,1.5015,1.5008,1.4984,1.4955,1.494,1.4933,1.4917,1.4923,1.4924,1.4926,1.4931,1.4871,1.493,1.4929,1.4929,1.4929,1.4929,0,1.5213,1.5197,1.5189,1.5169,1.5162,1.5136,1.5117,1.5113,1.5108,1.5089,1.5078,1.5066,1.5055,1.5024,1.5009,1.501,1.4996,1.5007,1.5006,1.5003,1.4946,1.4945,1.5019,1.5019,1.5018,1.5018,1.5018,1.5018,1.5248,1.5252,1.5234,1.523,1.5212,1.5206,1.5198,1.5185,1.5169,1.5159,1.5149,1.513,1.5106,1.509,1.5077,1.5069,1.5065,1.508,1.5067,1.5015,1.5007,1.4998,1.4996,1.508,1.508,1.5124,1.5124,1.5125]},{"header":{"parameterUnit":"m.s-1","parameterCategory":1,"la1":30.2991,"la2":30.254,"lo1":-89.0895,"lo2":-89.0444,"dy":0.0017,"dx":0.0017,"nx":28,"ny":28,"refTime":"2025-08-16T03:00:00:Z","depth":0,"parameterNumber":3,"parameterNumberName":"V-component_of_WINDS"},"data":[0,0,0,0,0,0,0,0,0,0,0,0,0,0,0,0,0,0,0,0,0,0,0,0,0,0,0,0,0,0,0,0,0,0,0,0,0,0,0,0,0,0,0,0,0,0,0,0,0,0,0,0,0,0,0,0,0,0,-3.0734,-3.0735,0,-3.0822,-3.0823,-3.0824,-3.0794,-3.0792,-3.079,-3.0788,-3.0875,-3.0879,-3.0883,0,0,0,0,0,0,0,0,0,0,0,0,0,-3.0537,-3.0541,-3.0734,-3.0735,-3.0736,-3.0822,-3.0823,-3.0825,-3.0794,-3.0792,-3.0789,-3.0787,-3.0874,-3.0878,-3.0883,0,0,0,0,0,0,0,0,0,0,0,0,0,-3.0624,-3.0542,-3.0734,-3.0732,-3.0732,-3.0822,-3.0823,-3.0825,-3.0795,-3.0792,-3.0789,-3.0786,-3.0872,-3.0878,-3.0884,-3.098,0,0,-3.0903,-3.0906,0,0,0,0,0,0,0,0,-3.0619,-3.0631,-3.0731,-3.0732,-3.0733,-3.0794,-3.0786,-3.0877,-3.0795,-3.0771,-3.0788,-3.0785,-3.085,-3.0858,-3.0881,-3.0984,-3.0988,-3.0903,-3.0907,-3.091,-3.0912,0,0,0,0,0,0,0,-3.0613,-3.0627,-3.0769,-3.0732,-3.0734,-3.0725,-3.0734,-3.0803,-3.0826,-3.0773,-3.0771,-3.0782,-3.085,-3.0875,-3.0882,-3.0989,-3.0903,-3.0909,-3.0913,-3.0915,-3.1177,-3.118,0,0,0,0,0,0,-3.0607,-3.0622,-3.0766,-3.0771,-3.0668,-3.0731,-3.0741,-3.0777,-3.0825,-3.0829,-3.0784,-3.078,-3.0866,-3.0875,-3.0885,-3.1002,-3.091,-3.0916,-3.0919,-3.1174,-3.1178,-3.1182,0,0,0,0,0,0,-3.0603,-3.062,-3.0762,-3.0696,-3.0714,-3.0738,-3.0778,-3.0781,-3.0805,-3.0833,-3.0837,-3.0805,-3.0864,-3.0877,-3.0957,-3.1005,-3.0918,-3.0924,-3.117,-3.1175,-3.118,-3.1236,0,0,0,0,0,0,-3.0597,-3.0618,-3.0656,-3.0697,-3.0718,-3.0834,-3.0781,-3.0784,-3.0816,-3.0812,-3.0854,-3.0859,-3.0863,-3.0948,-3.0964,-3.1012,-3.0929,-3.1166,-3.1173,-3.1178,-3.123,-3.1242,-3.1253,0,0,0,0,0,-3.059,-3.0667,-3.0658,-3.0675,-3.0765,-3.0837,-3.0848,-3.0852,-3.082,-3.0858,-3.0876,-3.0857,-3.0997,-3.0957,-3.0974,-3.1024,-3.1163,-3.1171,-3.1178,-3.1225,-3.124,-3.1252,0,0,0,0,0,0,-3.0629,-3.0672,-3.0663,-3.0756,-3.0793,-3.0831,-3.0879,-3.0867,-3.0914,-3.0907,-3.0909,-3.0919,-3.1002,-3.1021,-3.0976,-3.1121,-3.1075,-3.1086,-3.1105,-3.112,-3.1131,-3.1125,-3.0934,0,0,0,0,0,-3.0648,-3.0704,-3.0739,-3.0817,-3.0837,-3.0855,-3.0886,-3.0886,-3.0924,-3.094,-3.0964,-3.1001,-3.1053,-3.1087,-3.1137,-3.1233,-3.1242,-3.1276,-3.1287,-3.1296,-3.1306,-3.1359,-3.1375,-3.1206,-3.1206,-3.1206,0,0,-3.0689,-3.072,-3.0754,-3.0826,-3.0855,-3.0912,-3.0868,-3.093,-3.0972,-3.0948,-3.1027,-3.1046,-3.1087,-3.1176,-3.1217,-3.1195,-3.1355,-3.1306,-3.1313,-3.1317,-3.1368,-3.1384,-3.1398,-3.1211,-3.121,-3.1209,0,0,-3.0792,-3.0821,-3.089,-3.0921,-3.0966,-3.0977,-3.0994,-3.1035,-3.1047,-3.1126,-3.111,-3.116,-3.1249,-3.128,-3.1307,-3.1424,-3.1409,-3.144,-3.1499,-3.1551,-3.1564,-3.1576,-3.1619,-3.1634,-3.1449,-3.1449,-3.145,0,-3.0837,-3.0923,-3.0927,-3.0991,-3.1023,-3.1006,-3.1076,-3.1105,-3.1163,-3.1186,-3.116,-3.1274,-3.13,-3.1397,-3.1426,-3.1448,-3.1467,-3.1435,-3.1562,-3.1574,-3.1585,-3.1626,-3.1642,-3.1453,-3.1453,-3.1452,-3.1452,0,-3.0976,-3.1036,-3.1087,-3.1146,-3.1183,-3.125,-3.1264,-3.1301,-3.1298,-3.1312,-3.1393,-3.1425,-3.1481,-3.1504,-3.15,-3.16,-3.1585,-3.1561,-3.1516,-3.1605,-3.1643,-3.1658,-3.1458,-3.1457,-3.1456,-3.1455,0,0,-3.1106,-3.1167,-3.1186,-3.1213,-3.1262,-3.1308,-3.1374,-3.143,-3.1463,-3.1504,-3.1559,-3.1636,-3.1615,-3.1646,-3.1646,-3.1692,-3.1783,-3.1662,-3.1663,-3.1684,-3.1896,-3.1915,-3.1933,-3.1773,-3.1776,-3.1779,-3.1893,0,-3.1214,-3.1331,-3.1337,-3.1444,-3.15,-3.1485,-3.1542,-3.1578,-3.1593,-3.1643,-3.1659,-3.1714,-3.1681,-3.17,-3.1744,-3.1763,-3.1826,-3.1754,-3.1825,-3.1827,-3.1816,-3.1952,-3.1972,-3.2078,-3.1908,-3.191,-3.1912,0,-3.1356,-3.1403,-3.1516,-3.1558,-3.1582,-3.1633,-3.1686,-3.1734,-3.1774,-3.1782,-3.1818,-3.1812,-3.1879,-3.1831,-3.1924,-3.1875,-3.1904,-3.1918,-3.1922,-3.1929,-3.1876,-3.1964,-3.2112,-3.2129,-3.1935,-3.1934,-3.1932,0,-3.144,-3.1532,-3.1612,-3.1635,-3.1686,-3.1723,-3.1746,-3.1783,-3.1817,-3.1863,-3.1886,-3.1938,-3.1967,-3.2007,-3.2016,-3.198,-3.2109,-3.2062,-3.2118,-3.2118,-3.2146,-3.2144,-3.2302,-3.2163,-3.2163,-3.2163,-3.2162,0,-3.1561,-3.163,-3.1651,-3.17,-3.1777,-3.1783,-3.186,-3.188,-3.1914,-3.1966,-3.1955,-3.2004,-3.2012,-3.2063,-3.207,-3.2146,-3.2159,-3.2167,-3.2168,-3.2169,-3.2168,-3.2188,-3.2181,-3.2167,-3.2166,-3.2165,-3.2164,0,-3.1669,-3.1685,-3.1771,-3.1813,-3.1825,-3.188,-3.1916,-3.1963,-3.1977,-3.2044,-3.2059,-3.2082,-3.2141,-3.2154,-3.2223,-3.2228,-3.2319,-3.2312,-3.2306,-3.2306,-3.2361,-3.2356,-3.2538,-3.2563,-3.2407,-3.2409,-3.241,0,-3.1745,-3.1798,-3.1847,-3.1882,-3.1907,-3.1963,-3.1998,-3.2006,-3.2043,-3.2094,-3.2135,-3.2194,-3.2241,-3.2337,-3.2359,-3.2412,-3.2407,-3.2467,-3.2415,-3.2414,-3.2409,-3.2406,-3.2412,-3.2477,-3.2479,-3.248,-3.2481,0,-3.1879,-3.1884,-3.1936,-3.1992,-3.2035,-3.2078,-3.2119,-3.2148,-3.2162,-3.2204,-3.2266,-3.2303,-3.2375,-3.2434,-3.2488,-3.251,-3.2498,-3.2498,-3.2514,-3.2515,-3.251,-3.2515,-3.2334,-3.2494,-3.2492,-3.2491,-3.2491,-3.249,-3.1974,-3.2021,-3.2063,-3.2122,-3.2154,-3.2193,-3.224,-3.2261,-3.2313,-3.2374,-3.2375,-3.2442,-3.2482,-3.2554,-3.258,-3.2632,-3.2613,-3.2636,-3.2642,-3.2648,-3.2653,-3.2501,-3.2642,-3.2641,-3.2641,-3.2641,-3.264,0,-3.2108,-3.2134,-3.2188,-3.2248,-3.2294,-3.228,-3.2325,-3.2365,-3.2425,-3.2463,-3.2511,-3.2582,-3.2639,-3.2666,-3.2722,-3.2759,-3.2756,-3.2774,-3.2772,-3.2777,-3.2666,-3.2648,-3.2776,-3.2776,-3.2776,-3.2776,-3.2776,-3.2776,-3.2183,-3.2263,-3.2274,-3.237,-3.2396,-3.2463,-3.2491,-3.2527,-3.2558,-3.2639,-3.2687,-3.2704,-3.2739,-3.2798,-3.2849,-3.2856,-3.2877,-3.2899,-3.2902,-3.2799,-3.2785,-3.2772,-3.2754,-3.2903,-3.2903,-3.3009,-3.301,-3.3011]}]]